ARG1678 SABE-SAZS

Flight info

Callsign ARG1678
Flight time 2h 3m
Altitude 32000
Route PAL9 TORUL UT654 ORERA ORERA2Q
Aircraft B738/M-MSDFGHILRVW/LB1

Departure

Time 2026-04-24 18:59
Airport Aeroparque Jorge Newbery (SABE)

Arrival

Time 2026-04-24 21:02
Airport Teniente Luis Candelaria International Airport (SAZS)
Time Latitude Longitude Altitude Speed Heading
2026-04-24 18:54 -34.55735 -58.41755 24 ft 15 kts 297°
2026-04-24 18:55 -34.55622 -58.41961 25 ft 14 kts 304°
2026-04-24 18:55 -34.55567 -58.42059 28 ft 14 kts 304°
2026-04-24 18:55 -34.55511 -58.42147 27 ft 13 kts 307°
2026-04-24 18:56 -34.55458 -58.42232 27 ft 13 kts 307°
2026-04-24 18:56 -34.55406 -58.42316 27 ft 12 kts 307°
2026-04-24 18:56 -34.55368 -58.42395 27 ft 9 kts 282°
2026-04-24 18:56 -34.55364 -58.42472 24 ft 9 kts 251°
2026-04-24 18:57 -34.55412 -58.42496 28 ft 9 kts 136°
2026-04-24 18:57 -34.55425 -58.42475 29 ft 0 kts 124°
2026-04-24 18:58 -34.55431 -58.42463 26 ft 9 kts 124°
2026-04-24 18:58 -34.55602 -58.42156 28 ft 80 kts 124°
2026-04-24 18:58 -34.56033 -58.41384 26 ft 142 kts 124°
2026-04-24 18:58 -34.56674 -58.40238 298 ft 170 kts 122°
2026-04-24 18:59 -34.57324 -58.39027 984 ft 179 kts 120°
2026-04-24 18:59 -34.57844 -58.37623 1616 ft 189 kts 93°
2026-04-24 18:59 -34.57478 -58.36018 1815 ft 215 kts 56°
2026-04-24 18:59 -34.56629 -58.34395 1993 ft 240 kts 58°
2026-04-24 19:00 -34.55788 -58.32601 2365 ft 244 kts 60°
2026-04-24 19:00 -34.54991 -58.30810 3271 ft 235 kts 62°
2026-04-24 19:00 -34.54655 -58.28880 3972 ft 243 kts 96°
2026-04-24 19:00 -34.55295 -58.26950 4536 ft 258 kts 124°
2026-04-24 19:01 -34.56660 -58.25461 4992 ft 276 kts 151°
2026-04-24 19:01 -34.58535 -58.24798 5729 ft 282 kts 180°
2026-04-24 19:01 -34.60403 -58.25293 6548 ft 280 kts 212°
2026-04-24 19:01 -34.61834 -58.26831 7370 ft 276 kts 232°
2026-04-24 19:02 -34.62643 -58.28036 7868 ft 279 kts 234°
2026-04-24 19:02 -34.64238 -58.30562 8904 ft 283 kts 235°
2026-04-24 19:02 -34.65432 -58.32478 9708 ft 286 kts 235°
2026-04-24 19:02 -34.66648 -58.34418 10429 ft 292 kts 235°
2026-04-24 19:03 -34.67929 -58.36452 10659 ft 315 kts 234°
2026-04-24 19:03 -34.69315 -58.38642 10832 ft 338 kts 234°
2026-04-24 19:03 -34.70799 -58.40972 11124 ft 354 kts 234°
2026-04-24 19:03 -34.72308 -58.43331 11709 ft 360 kts 234°
2026-04-24 19:04 -34.73848 -58.45731 12499 ft 359 kts 234°
2026-04-24 19:04 -34.75385 -58.48123 13302 ft 359 kts 234°
2026-04-24 19:04 -34.76932 -58.50530 14018 ft 362 kts 234°
2026-04-24 19:04 -34.78487 -58.52952 14664 ft 364 kts 234°
2026-04-24 19:05 -34.80052 -58.55391 15287 ft 367 kts 234°
2026-04-24 19:05 -34.81624 -58.57845 15903 ft 370 kts 234°
2026-04-24 19:05 -34.83218 -58.60334 16535 ft 373 kts 235°
2026-04-24 19:05 -34.84821 -58.62837 17164 ft 375 kts 235°
2026-04-24 19:06 -34.86429 -58.65350 17767 ft 378 kts 235°
2026-04-24 19:06 -34.88050 -58.67887 18385 ft 381 kts 236°
2026-04-24 19:06 -34.89668 -58.70420 18899 ft 383 kts 236°
2026-04-24 19:06 -34.91305 -58.72984 19421 ft 385 kts 236°
2026-04-24 19:07 -34.92956 -58.75573 19951 ft 388 kts 236°
2026-04-24 19:07 -34.94619 -58.78181 20469 ft 390 kts 236°
2026-04-24 19:07 -34.95747 -58.79951 20819 ft 392 kts 236°
2026-04-24 19:07 -34.97972 -58.83446 21491 ft 395 kts 236°
2026-04-24 19:08 -34.99659 -58.86100 21981 ft 397 kts 236°
2026-04-24 19:08 -35.01360 -58.88776 22466 ft 400 kts 236°
2026-04-24 19:08 -35.03069 -58.91467 22942 ft 402 kts 236°
2026-04-24 19:08 -35.04784 -58.94170 23405 ft 405 kts 236°
2026-04-24 19:09 -35.06512 -58.96896 23821 ft 407 kts 236°
2026-04-24 19:09 -35.08247 -58.99634 24222 ft 408 kts 236°
2026-04-24 19:09 -35.09895 -59.02236 24608 ft 409 kts 236°
2026-04-24 19:09 -35.11640 -59.04994 24995 ft 411 kts 236°
2026-04-24 19:10 -35.13392 -59.07765 25408 ft 412 kts 236°
2026-04-24 19:10 -35.15145 -59.10541 25771 ft 414 kts 236°
2026-04-24 19:10 -35.16911 -59.13339 26125 ft 416 kts 236°
2026-04-24 19:10 -35.18679 -59.16143 26471 ft 418 kts 236°
2026-04-24 19:11 -35.20437 -59.18933 26808 ft 419 kts 236°
2026-04-24 19:11 -35.22224 -59.21772 27140 ft 421 kts 236°
2026-04-24 19:11 -35.24013 -59.24615 27540 ft 421 kts 236°
2026-04-24 19:11 -35.25793 -59.27445 28062 ft 418 kts 236°
2026-04-24 19:12 -35.27554 -59.30248 28627 ft 414 kts 236°
2026-04-24 19:12 -35.29308 -59.33042 29110 ft 412 kts 236°
2026-04-24 19:12 -35.31052 -59.35824 29536 ft 412 kts 236°
2026-04-24 19:12 -35.32795 -59.38608 29974 ft 411 kts 236°
2026-04-24 19:13 -35.33948 -59.40449 30263 ft 409 kts 237°
2026-04-24 19:13 -35.36235 -59.44104 30783 ft 407 kts 237°
2026-04-24 19:13 -35.37918 -59.46879 31138 ft 405 kts 238°
2026-04-24 19:13 -35.39568 -59.49687 31481 ft 404 kts 239°
2026-04-24 19:14 -35.41195 -59.52485 31850 ft 402 kts 239°
2026-04-24 19:14 -35.42818 -59.55285 32023 ft 405 kts 239°
2026-04-24 19:14 -35.44482 -59.58154 32027 ft 407 kts 239°
2026-04-24 19:15 -35.47763 -59.63792 32031 ft 404 kts 239°
2026-04-24 19:15 -35.50988 -59.69321 32035 ft 400 kts 239°
2026-04-24 19:16 -35.55857 -59.77687 32037 ft 401 kts 239°
2026-04-24 19:16 -35.59109 -59.83284 32030 ft 402 kts 239°
2026-04-24 19:17 -35.62362 -59.88892 32034 ft 402 kts 239°
2026-04-24 19:17 -35.65589 -59.94463 32016 ft 403 kts 239°
2026-04-24 19:18 -35.68826 -60.00060 32019 ft 403 kts 239°
2026-04-24 19:18 -35.72015 -60.05583 32031 ft 403 kts 239°
2026-04-24 19:19 -35.74710 -60.10258 32017 ft 403 kts 239°
2026-04-24 19:19 -35.78496 -60.16836 32025 ft 402 kts 239°
2026-04-24 19:20 -35.81185 -60.21515 32023 ft 402 kts 239°
2026-04-24 19:20 -35.84435 -60.27179 32026 ft 402 kts 239°
2026-04-24 19:21 -35.87654 -60.32798 32026 ft 401 kts 239°
2026-04-24 19:21 -35.90850 -60.38386 32022 ft 401 kts 239°
2026-04-24 19:22 -35.94077 -60.44039 32041 ft 400 kts 239°
2026-04-24 19:22 -35.97289 -60.49675 32033 ft 401 kts 239°
2026-04-24 19:23 -36.00439 -60.55209 32027 ft 400 kts 239°
2026-04-24 19:23 -36.03654 -60.60866 32024 ft 400 kts 239°
2026-04-24 19:24 -36.06823 -60.66455 32021 ft 399 kts 239°
2026-04-24 19:24 -36.10010 -60.72083 32019 ft 399 kts 239°
2026-04-24 19:25 -36.13192 -60.77711 32031 ft 398 kts 239°
2026-04-24 19:25 -36.16347 -60.83333 32024 ft 398 kts 239°
2026-04-24 19:26 -36.19505 -60.88977 32020 ft 398 kts 239°
2026-04-24 19:26 -36.22653 -60.94613 32023 ft 398 kts 239°
2026-04-24 19:27 -36.25744 -61.00154 32020 ft 398 kts 239°
2026-04-24 19:27 -36.28853 -61.05737 32027 ft 398 kts 239°
2026-04-24 19:28 -36.31998 -61.11392 32021 ft 398 kts 239°
2026-04-24 19:28 -36.35135 -61.17041 32047 ft 398 kts 239°
2026-04-24 19:29 -36.39848 -61.25549 32027 ft 398 kts 240°
2026-04-24 19:30 -36.42990 -61.31233 32024 ft 399 kts 240°
2026-04-24 19:30 -36.46126 -61.36918 32024 ft 398 kts 240°
2026-04-24 19:31 -36.49236 -61.42565 32020 ft 398 kts 240°
2026-04-24 19:31 -36.52369 -61.48261 32022 ft 398 kts 240°
2026-04-24 19:32 -36.55490 -61.53949 32025 ft 398 kts 240°
2026-04-24 19:32 -36.58612 -61.59646 32019 ft 398 kts 240°
2026-04-24 19:33 -36.61731 -61.65347 32021 ft 398 kts 240°
2026-04-24 19:33 -36.64841 -61.71042 32022 ft 398 kts 240°
2026-04-24 19:34 -36.67946 -61.76738 32028 ft 398 kts 240°
2026-04-24 19:34 -36.71055 -61.82449 32016 ft 397 kts 240°
2026-04-24 19:35 -36.74136 -61.88120 32027 ft 397 kts 240°
2026-04-24 19:35 -36.77231 -61.93825 32032 ft 398 kts 240°
2026-04-24 19:36 -36.80334 -61.99554 32027 ft 398 kts 240°
2026-04-24 19:36 -36.83360 -62.05152 32022 ft 397 kts 240°
2026-04-24 19:37 -36.86450 -62.10877 32021 ft 397 kts 241°
2026-04-24 19:37 -36.89542 -62.16614 32020 ft 397 kts 241°
2026-04-24 19:38 -36.92623 -62.22342 32020 ft 397 kts 241°
2026-04-24 19:38 -36.95681 -62.28038 32022 ft 396 kts 241°
2026-04-24 19:39 -36.98753 -62.33768 32020 ft 396 kts 241°
2026-04-24 19:39 -37.01807 -62.39475 32023 ft 396 kts 241°
2026-04-24 19:40 -37.04871 -62.45209 32023 ft 396 kts 241°
2026-04-24 19:40 -37.07914 -62.50914 32023 ft 396 kts 241°
2026-04-24 19:41 -37.10970 -62.56656 32031 ft 396 kts 241°
2026-04-24 19:41 -37.14018 -62.62390 32024 ft 396 kts 241°
2026-04-24 19:42 -37.17066 -62.68135 32057 ft 396 kts 241°
2026-04-24 19:42 -37.20121 -62.73903 32039 ft 396 kts 241°
2026-04-24 19:43 -37.23168 -62.79664 32030 ft 396 kts 241°
2026-04-24 19:43 -37.26216 -62.85439 32034 ft 396 kts 242°
2026-04-24 19:44 -37.29259 -62.91214 32031 ft 396 kts 242°
2026-04-24 19:44 -37.32299 -62.96994 32033 ft 396 kts 242°
2026-04-24 19:45 -37.35273 -63.02654 32038 ft 396 kts 242°
2026-04-24 19:45 -37.38300 -63.08407 32035 ft 396 kts 242°
2026-04-24 19:46 -37.41346 -63.14201 32059 ft 396 kts 242°
2026-04-24 19:46 -37.44388 -63.20000 32045 ft 397 kts 242°
2026-04-24 19:47 -37.47423 -63.25798 32036 ft 397 kts 242°
2026-04-24 19:47 -37.50459 -63.31606 32039 ft 397 kts 242°
2026-04-24 19:48 -37.53491 -63.37418 32039 ft 396 kts 242°
2026-04-24 19:48 -37.58014 -63.46108 32066 ft 397 kts 242°
2026-04-24 19:49 -37.64065 -63.57770 32041 ft 397 kts 242°
2026-04-24 19:50 -37.70103 -63.69445 32038 ft 397 kts 242°
2026-04-24 19:51 -37.74625 -63.78217 32045 ft 397 kts 242°
2026-04-24 19:52 -37.79130 -63.86980 32033 ft 397 kts 242°
2026-04-24 19:52 -37.82138 -63.92844 32038 ft 397 kts 242°
2026-04-24 19:53 -37.85142 -63.98710 32038 ft 397 kts 242°
2026-04-24 19:54 -37.89576 -64.07389 32053 ft 396 kts 242°
2026-04-24 19:54 -37.92571 -64.13263 32026 ft 396 kts 242°
2026-04-24 19:55 -37.94547 -64.17145 32043 ft 396 kts 242°
2026-04-24 19:55 -37.98513 -64.24951 32056 ft 395 kts 242°
2026-04-24 19:56 -38.01483 -64.30808 32035 ft 395 kts 242°
2026-04-24 19:56 -38.04458 -64.36688 32053 ft 395 kts 242°
2026-04-24 19:57 -38.07423 -64.42554 32041 ft 395 kts 242°
2026-04-24 19:57 -38.10390 -64.48438 32040 ft 395 kts 242°
2026-04-24 19:58 -38.13325 -64.54275 32038 ft 394 kts 242°
2026-04-24 19:58 -38.16271 -64.60153 32035 ft 394 kts 242°
2026-04-24 19:59 -38.19215 -64.66036 32041 ft 394 kts 242°
2026-04-24 19:59 -38.22158 -64.71928 32039 ft 394 kts 242°
2026-04-24 20:00 -38.24597 -64.76818 32036 ft 394 kts 242°
2026-04-24 20:00 -38.27532 -64.82712 32043 ft 394 kts 242°
2026-04-24 20:01 -38.30456 -64.88596 32043 ft 393 kts 242°
2026-04-24 20:01 -38.33380 -64.94490 32042 ft 394 kts 242°
2026-04-24 20:02 -38.36230 -65.00246 32049 ft 394 kts 242°
2026-04-24 20:02 -38.39147 -65.06146 32042 ft 394 kts 242°
2026-04-24 20:03 -38.42073 -65.12076 32041 ft 394 kts 242°
2026-04-24 20:03 -38.44993 -65.18004 32040 ft 394 kts 242°
2026-04-24 20:04 -38.47907 -65.23932 32042 ft 394 kts 242°
2026-04-24 20:04 -38.50800 -65.29828 32054 ft 394 kts 243°
2026-04-24 20:05 -38.53705 -65.35758 32041 ft 394 kts 242°
2026-04-24 20:05 -38.56610 -65.41700 32045 ft 394 kts 242°
2026-04-24 20:06 -38.59506 -65.47633 32050 ft 393 kts 242°
2026-04-24 20:06 -38.62404 -65.53583 32045 ft 393 kts 242°
2026-04-24 20:07 -38.64803 -65.58515 32046 ft 393 kts 242°
2026-04-24 20:07 -38.68178 -65.65470 32048 ft 393 kts 242°
2026-04-24 20:08 -38.71044 -65.71386 32042 ft 393 kts 242°
2026-04-24 20:08 -38.73926 -65.77346 32044 ft 394 kts 242°
2026-04-24 20:09 -38.76816 -65.83335 32045 ft 394 kts 242°
2026-04-24 20:09 -38.79694 -65.89309 32048 ft 394 kts 242°
2026-04-24 20:10 -38.82575 -65.95301 32054 ft 394 kts 242°
2026-04-24 20:10 -38.85387 -66.01161 32049 ft 394 kts 242°
2026-04-24 20:11 -38.88264 -66.07166 32050 ft 394 kts 242°
2026-04-24 20:11 -38.91115 -66.13128 32047 ft 394 kts 242°
2026-04-24 20:12 -38.93978 -66.19143 32050 ft 394 kts 242°
2026-04-24 20:12 -38.96836 -66.25163 32062 ft 394 kts 242°
2026-04-24 20:13 -38.99692 -66.31188 32053 ft 395 kts 242°
2026-04-24 20:13 -39.02537 -66.37203 32051 ft 395 kts 242°
2026-04-24 20:14 -39.05388 -66.43242 32056 ft 394 kts 242°
2026-04-24 20:14 -39.08232 -66.49275 32051 ft 394 kts 242°
2026-04-24 20:15 -39.11056 -66.55280 32054 ft 394 kts 242°
2026-04-24 20:15 -39.13892 -66.61321 32061 ft 394 kts 242°
2026-04-24 20:16 -39.16728 -66.67373 32064 ft 394 kts 242°
2026-04-24 20:16 -39.19557 -66.73420 32056 ft 393 kts 242°
2026-04-24 20:17 -39.22357 -66.79420 32056 ft 393 kts 242°
2026-04-24 20:17 -39.26578 -66.88482 32057 ft 392 kts 242°
2026-04-24 20:18 -39.29379 -66.94511 32056 ft 391 kts 242°
2026-04-24 20:18 -39.32100 -67.00379 32055 ft 391 kts 242°
2026-04-24 20:19 -39.34895 -67.06419 32058 ft 391 kts 242°
2026-04-24 20:19 -39.37681 -67.12451 32054 ft 391 kts 242°
2026-04-24 20:20 -39.40465 -67.18489 32054 ft 391 kts 242°
2026-04-24 20:20 -39.43246 -67.24532 32070 ft 391 kts 242°
2026-04-24 20:21 -39.46005 -67.30539 32055 ft 391 kts 242°
2026-04-24 20:21 -39.48779 -67.36590 32061 ft 390 kts 242°
2026-04-24 20:22 -39.51551 -67.42648 32053 ft 390 kts 242°
2026-04-24 20:22 -39.54293 -67.48653 32057 ft 389 kts 242°
2026-04-24 20:23 -39.57037 -67.54674 32048 ft 387 kts 242°
2026-04-24 20:23 -39.59765 -67.60670 32049 ft 385 kts 242°
2026-04-24 20:24 -39.62479 -67.66648 32052 ft 383 kts 242°
2026-04-24 20:24 -39.65159 -67.72561 32057 ft 382 kts 242°
2026-04-24 20:25 -39.67852 -67.78516 32059 ft 381 kts 242°
2026-04-24 20:25 -39.70539 -67.84470 32057 ft 382 kts 242°
2026-04-24 20:26 -39.73226 -67.90434 32062 ft 382 kts 242°
2026-04-24 20:26 -39.75898 -67.96377 32067 ft 383 kts 242°
2026-04-24 20:27 -39.78534 -68.02248 32065 ft 384 kts 242°
2026-04-24 20:27 -39.81238 -68.08252 32064 ft 386 kts 241°
2026-04-24 20:28 -39.84174 -68.14131 32066 ft 387 kts 239°
2026-04-24 20:28 -39.87161 -68.19922 32062 ft 388 kts 239°
2026-04-24 20:29 -39.90160 -68.25780 32083 ft 388 kts 239°
2026-04-24 20:29 -39.93137 -68.31641 32074 ft 388 kts 239°
2026-04-24 20:30 -39.96107 -68.37513 32068 ft 387 kts 239°
2026-04-24 20:30 -39.99057 -68.43359 32063 ft 385 kts 240°
2026-04-24 20:31 -40.01995 -68.49192 32077 ft 384 kts 240°
2026-04-24 20:31 -40.04899 -68.54971 32078 ft 383 kts 240°
2026-04-24 20:32 -40.07820 -68.60793 32068 ft 383 kts 240°
2026-04-24 20:32 -40.10733 -68.66609 32070 ft 382 kts 240°
2026-04-24 20:33 -40.13639 -68.72425 32079 ft 382 kts 240°
2026-04-24 20:33 -40.16547 -68.78253 32077 ft 382 kts 240°
2026-04-24 20:34 -40.19453 -68.84088 32081 ft 383 kts 240°
2026-04-24 20:34 -40.22357 -68.89931 32090 ft 383 kts 240°
2026-04-24 20:35 -40.25246 -68.95753 32080 ft 384 kts 240°
2026-04-24 20:35 -40.28084 -69.01485 32087 ft 384 kts 240°
2026-04-24 20:36 -40.30984 -69.07353 32083 ft 384 kts 240°
2026-04-24 20:36 -40.33878 -69.13214 32079 ft 374 kts 240°
2026-04-24 20:37 -40.36628 -69.18790 32074 ft 358 kts 241°
2026-04-24 20:37 -40.37954 -69.21476 32045 ft 344 kts 241°
2026-04-24 20:37 -40.39240 -69.24086 31787 ft 338 kts 242°
2026-04-24 20:38 -40.40523 -69.26702 31013 ft 346 kts 241°
2026-04-24 20:38 -40.41844 -69.29405 30198 ft 356 kts 241°
2026-04-24 20:38 -40.43184 -69.32144 29651 ft 355 kts 241°
2026-04-24 20:38 -40.44514 -69.34857 29169 ft 352 kts 241°
2026-04-24 20:39 -40.45835 -69.37553 28756 ft 348 kts 241°
2026-04-24 20:39 -40.47135 -69.40207 28359 ft 344 kts 241°
2026-04-24 20:39 -40.48422 -69.42839 27949 ft 341 kts 241°
2026-04-24 20:39 -40.49694 -69.45443 27576 ft 337 kts 241°
2026-04-24 20:40 -40.50958 -69.48032 27164 ft 334 kts 241°
2026-04-24 20:40 -40.52208 -69.50597 26779 ft 331 kts 241°
2026-04-24 20:40 -40.53426 -69.53097 26401 ft 328 kts 241°
2026-04-24 20:40 -40.54650 -69.55614 26031 ft 325 kts 240°
2026-04-24 20:41 -40.55865 -69.58112 25670 ft 323 kts 240°
2026-04-24 20:41 -40.57073 -69.60598 25320 ft 321 kts 240°
2026-04-24 20:41 -40.58276 -69.63077 24944 ft 319 kts 240°
2026-04-24 20:41 -40.59454 -69.65507 24578 ft 317 kts 240°
2026-04-24 20:42 -40.60641 -69.67956 24213 ft 316 kts 240°
2026-04-24 20:42 -40.61817 -69.70385 23854 ft 314 kts 240°
2026-04-24 20:42 -40.62992 -69.72813 23456 ft 313 kts 240°
2026-04-24 20:42 -40.64158 -69.75223 23048 ft 311 kts 240°
2026-04-24 20:43 -40.65317 -69.77620 22683 ft 308 kts 240°
2026-04-24 20:43 -40.66462 -69.79993 22324 ft 306 kts 240°
2026-04-24 20:43 -40.67597 -69.82344 22005 ft 302 kts 240°
2026-04-24 20:43 -40.68719 -69.84671 21633 ft 301 kts 240°
2026-04-24 20:44 -40.69838 -69.86993 21279 ft 298 kts 240°
2026-04-24 20:44 -40.70947 -69.89297 20935 ft 296 kts 239°
2026-04-24 20:44 -40.72045 -69.91580 20611 ft 295 kts 239°
2026-04-24 20:44 -40.73148 -69.93877 20279 ft 296 kts 239°
2026-04-24 20:45 -40.74250 -69.96172 19951 ft 299 kts 239°
2026-04-24 20:45 -40.75379 -69.98525 19612 ft 306 kts 239°
2026-04-24 20:45 -40.76475 -70.00813 19266 ft 309 kts 239°
2026-04-24 20:45 -40.77623 -70.03207 18905 ft 307 kts 239°
2026-04-24 20:46 -40.78747 -70.05554 18563 ft 305 kts 239°
2026-04-24 20:46 -40.79875 -70.07908 18198 ft 303 kts 239°
2026-04-24 20:46 -40.80997 -70.10254 17827 ft 301 kts 239°
2026-04-24 20:46 -40.82106 -70.12577 17468 ft 298 kts 239°
2026-04-24 20:47 -40.82840 -70.14114 17243 ft 296 kts 239°
2026-04-24 20:47 -40.83936 -70.16410 16894 ft 294 kts 239°
2026-04-24 20:47 -40.85020 -70.18683 16573 ft 292 kts 239°
2026-04-24 20:47 -40.86103 -70.20956 16232 ft 290 kts 239°
2026-04-24 20:48 -40.87171 -70.23200 15897 ft 288 kts 239°
2026-04-24 20:48 -40.88234 -70.25435 15573 ft 286 kts 239°
2026-04-24 20:48 -40.89295 -70.27667 15236 ft 285 kts 239°
2026-04-24 20:48 -40.90344 -70.29875 14927 ft 283 kts 239°
2026-04-24 20:49 -40.91386 -70.32069 14598 ft 281 kts 239°
2026-04-24 20:49 -40.92409 -70.34227 14288 ft 279 kts 238°
2026-04-24 20:49 -40.93449 -70.36421 13952 ft 277 kts 238°
2026-04-24 20:49 -40.94454 -70.38541 13615 ft 275 kts 238°
2026-04-24 20:50 -40.95471 -70.40690 13253 ft 274 kts 238°
2026-04-24 20:50 -40.96479 -70.42821 12942 ft 272 kts 238°
2026-04-24 20:50 -40.97486 -70.44932 12615 ft 269 kts 237°
2026-04-24 20:50 -40.98636 -70.46908 12159 ft 273 kts 231°
2026-04-24 20:51 -40.99863 -70.48829 11824 ft 272 kts 231°
2026-04-24 20:51 -41.01075 -70.50742 11502 ft 271 kts 231°
2026-04-24 20:51 -41.02271 -70.52657 11178 ft 270 kts 232°
2026-04-24 20:51 -41.03457 -70.54570 10900 ft 267 kts 232°
2026-04-24 20:52 -41.04613 -70.56440 10612 ft 264 kts 233°
2026-04-24 20:52 -41.05765 -70.58306 10437 ft 257 kts 233°
2026-04-24 20:52 -41.06877 -70.60109 10334 ft 249 kts 233°
2026-04-24 20:52 -41.07958 -70.61864 10222 ft 242 kts 233°
2026-04-24 20:53 -41.09007 -70.63566 10098 ft 235 kts 233°
2026-04-24 20:53 -41.10039 -70.65246 9832 ft 234 kts 233°
2026-04-24 20:53 -41.11062 -70.66911 9565 ft 233 kts 233°
2026-04-24 20:53 -41.12079 -70.68569 9306 ft 230 kts 233°
2026-04-24 20:54 -41.13078 -70.70196 9189 ft 223 kts 233°
2026-04-24 20:54 -41.14047 -70.71775 9062 ft 216 kts 233°
2026-04-24 20:54 -41.14974 -70.73285 8981 ft 213 kts 233°
2026-04-24 20:54 -41.15910 -70.74813 8901 ft 213 kts 233°
2026-04-24 20:55 -41.16844 -70.76339 8819 ft 214 kts 233°
2026-04-24 20:55 -41.17779 -70.77864 8639 ft 211 kts 233°
2026-04-24 20:55 -41.18702 -70.79373 8434 ft 208 kts 233°
2026-04-24 20:55 -41.19621 -70.80877 8093 ft 213 kts 233°
2026-04-24 20:56 -41.20563 -70.82417 7821 ft 215 kts 233°
2026-04-24 20:56 -41.21518 -70.83979 7523 ft 219 kts 233°
2026-04-24 20:56 -41.22476 -70.85547 7255 ft 219 kts 233°
2026-04-24 20:56 -41.23431 -70.87110 7024 ft 217 kts 233°
2026-04-24 20:57 -41.24265 -70.88739 6755 ft 215 kts 253°
2026-04-24 20:57 -41.24184 -70.90691 6521 ft 215 kts 294°
2026-04-24 20:57 -41.23473 -70.92405 6311 ft 214 kts 295°
2026-04-24 20:57 -41.22808 -70.94128 6212 ft 205 kts 294°
2026-04-24 20:58 -41.22151 -70.95786 5953 ft 209 kts 296°
2026-04-24 20:58 -41.21473 -70.97512 5664 ft 210 kts 294°
2026-04-24 20:58 -41.20853 -70.99242 5359 ft 200 kts 293°
2026-04-24 20:58 -41.20312 -71.00798 5090 ft 188 kts 293°
2026-04-24 20:59 -41.19781 -71.02324 4851 ft 176 kts 292°
2026-04-24 20:59 -41.19288 -71.03745 4614 ft 161 kts 293°
2026-04-24 20:59 -41.18839 -71.05038 4327 ft 147 kts 294°
2026-04-24 20:59 -41.18420 -71.06243 4130 ft 143 kts 295°
2026-04-24 21:00 -41.17997 -71.07461 3921 ft 149 kts 295°
2026-04-24 21:00 -41.17570 -71.08690 3715 ft 143 kts 295°
2026-04-24 21:00 -41.17157 -71.09881 3542 ft 144 kts 295°
2026-04-24 21:00 -41.16731 -71.11106 3359 ft 147 kts 295°
2026-04-24 21:01 -41.16312 -71.12324 3144 ft 144 kts 295°
2026-04-24 21:01 -41.15894 -71.13530 2946 ft 144 kts 295°
2026-04-24 21:01 -41.15479 -71.14732 2767 ft 141 kts 296°
2026-04-24 21:01 -41.15104 -71.15793 2752 ft 102 kts 295°
2026-04-24 21:02 -41.14891 -71.16403 2754 ft 52 kts 295°
2026-04-24 21:02 -41.14778 -71.16727 2750 ft 33 kts 295°
2026-04-24 21:02 -41.14700 -71.16935 2751 ft 20 kts 317°
2026-04-24 21:02 -41.14676 -71.17013 2750 ft 9 kts 170°
2026-04-24 21:03 -41.14705 -71.16937 2751 ft 11 kts 113°
2026-04-24 21:03 -41.14756 -71.16795 2749 ft 22 kts 115°
2026-04-24 21:03 -41.14826 -71.16592 2750 ft 24 kts 115°
2026-04-24 21:03 -41.14889 -71.16407 2754 ft 18 kts 110°
2026-04-24 21:04 -41.14836 -71.16306 2750 ft 8 kts 26°
2026-04-24 21:04 -41.14799 -71.16283 2749 ft 0 kts 25°
2026-04-24 21:04 -41.14799 -71.16282 2749 ft 0 kts 25°
2026-04-24 21:05 -41.14796 -71.16281 2749 ft 1 kts 25°
2026-04-24 21:05 -41.14785 -71.16274 2730 ft 3 kts 26°
2026-04-24 21:06 -41.14765 -71.16258 2748 ft 4 kts 32°
2026-04-24 21:06 -41.14745 -71.16219 2750 ft 6 kts 73°
2026-04-24 21:06 -41.14735 -71.16163 2748 ft 6 kts 62°
2026-04-24 21:06 -41.14722 -71.16125 2748 ft 2 kts 66°
2026-04-24 21:07 -41.14717 -71.16111 2748 ft 1 kts 67°
2026-04-24 21:07 -41.14717 -71.16110 2748 ft 0 kts 67°